Weather History for KDXR - July, 2013

Change the Weather History Date:

Saturday, July 27, 2013

  Actual Average Record
Temperature  
Mean Temperature 68 °F -  
Max Temperature 80 °F 82 °F 94 °F (1949)
Min Temperature 57 °F 61 °F 46 °F (2001)
Cooling Degree Days 4    
Growing Degree Days 18 (Base 50)    
Moisture  
Dew Point 59 °F    
Average Humidity 77    
Maximum Humidity 94    
Minimum Humidity 45    
Precipitation  
Precipitation 0.01 in - - ()
Sea Level Pressure  
Sea Level Pressure 30.04 in    
Wind  
Wind Speed 2 mph (South)    
Max Wind Speed 10 mph    
Max Gust Speed 16 mph    
Visibility 7 miles    
Events Fog    
Averages and records for this station are not official NWS values.
T = Trace of Precipitation, MM = Missing Value Source: NWS Daily Summary

Daily Weather History Graph

Daily Weather History Graph

Search for Another Location

Airport or City:

Trip Planner

Search our weather history database for the weather conditions in past years. The results will help you decide how hot, cold, wet, or windy it might be!

Date:

Astronomy

Jul. 27, 2013 Rise Set
Actual Time 5:44 AM EDT 8:15 PM EDT
Civil Twilight 5:12 AM EDT 8:47 PM EDT
Nautical Twilight 4:33 AM EDT 9:26 PM EDT
Astronomical Twilight 3:48 AM EDT 10:10 PM EDT
Moon 10:56 PM EDT (7/27) 11:26 AM EDT (7/27)
Length of Visible Light 15h 34m
Length of Day
14h 31m
Waning Gibbous, 71% of the Moon is Illuminated
Jul 27
Waning Gibbous
Jul 29
Last Quarter
Aug 6
New
Aug 14
First Quarter
Aug 20
Full

Hourly Weather History & Observations

Time (EDT) Temp. Heat Index Dew Point Humidity Pressure Visibility Wind Dir Wind Speed Gust Speed Precip Events Conditions
12:53 AM 62.1 °F - 59.0 °F 90% 30.06 in 9.0 mi Calm Calm - N/A   Clear
1:53 AM 61.0 °F - 57.9 °F 90% 30.05 in 7.0 mi Calm Calm - N/A   Clear
2:53 AM 60.1 °F - 57.0 °F 90% 30.05 in 9.0 mi Calm Calm - N/A   Clear
3:53 AM 59.0 °F - 57.0 °F 93% 30.04 in 4.0 mi Calm Calm - N/A   Clear
4:40 AM 59.0 °F - 55.4 °F 88% 30.05 in 2.5 mi Calm Calm - N/A   Clear
4:53 AM 59.0 °F - 55.9 °F 90% 30.04 in 1.5 mi Calm Calm - N/A   Clear
5:08 AM 59.0 °F - 57.2 °F 94% 30.05 in 3.0 mi Calm Calm - N/A   Clear
5:12 AM 59.0 °F - 57.2 °F 94% 30.05 in 1.8 mi Calm Calm - N/A   Clear
5:28 AM 57.2 °F - 55.4 °F 94% 30.06 in 0.5 mi Calm Calm - N/A Fog Fog
5:40 AM 59.0 °F - 57.2 °F 94% 30.06 in 1.2 mi Calm Calm - N/A   Clear
5:53 AM 57.9 °F - 55.9 °F 93% 30.06 in 1.0 mi Calm Calm - N/A   Clear
5:58 AM 57.2 °F - 55.4 °F 94% 30.07 in 2.5 mi Calm Calm - N/A   Clear
6:05 AM 57.2 °F - 55.4 °F 94% 30.07 in 5.0 mi Calm Calm - N/A   Clear
6:24 AM 59.0 °F - 57.2 °F 94% 30.07 in 2.0 mi Calm Calm - 0.01 in   Clear
6:34 AM 59.0 °F - 57.2 °F 94% 30.06 in 7.0 mi Calm Calm - 0.01 in   Clear
6:53 AM 61.0 °F - 57.9 °F 90% 30.06 in 8.0 mi Calm Calm - 0.01 in   Clear
7:53 AM 66.9 °F - 62.1 °F 84% 30.06 in 8.0 mi Calm Calm - N/A   Clear
8:53 AM 71.1 °F - 61.0 °F 70% 30.06 in 10.0 mi Calm Calm - N/A   Clear
9:53 AM 75.0 °F - 60.1 °F 60% 30.07 in 10.0 mi WSW 6.9 mph - N/A   Clear
10:53 AM 78.1 °F - 60.1 °F 54% 30.07 in 9.0 mi West 9.2 mph - N/A   Clear
11:53 AM 79.0 °F - 55.9 °F 45% 30.07 in 10.0 mi Variable 4.6 mph - N/A   Partly Cloudy
12:53 PM 78.1 °F - 59.0 °F 52% 30.06 in 10.0 mi South 10.4 mph - N/A   Partly Cloudy
1:53 PM 79.0 °F - 59.0 °F 50% 30.04 in 10.0 mi SSE 4.6 mph - N/A   Scattered Clouds
2:53 PM 80.1 °F 80.7 °F 59.0 °F 48% 30.03 in 10.0 mi South 8.1 mph - N/A   Partly Cloudy
3:53 PM 80.1 °F 81.1 °F 61.0 °F 52% 30.02 in 10.0 mi SE 9.2 mph - N/A   Clear
4:53 PM 79.0 °F - 61.0 °F 54% 30.01 in 10.0 mi SE 6.9 mph 16.1 mph N/A   Partly Cloudy
5:53 PM 75.9 °F - 61.0 °F 60% 30.00 in 10.0 mi SSE 6.9 mph - N/A   Clear
6:53 PM 75.0 °F - 61.0 °F 62% 29.99 in 10.0 mi SSE 8.1 mph - N/A   Clear
7:53 PM 73.0 °F - 61.0 °F 66% 30.00 in 10.0 mi SSE 5.8 mph - N/A   Clear
8:53 PM 70.0 °F - 61.0 °F 73% 30.01 in 10.0 mi South 8.1 mph - N/A   Clear
9:53 PM 69.1 °F - 61.0 °F 75% 30.03 in 10.0 mi Calm Calm - N/A   Clear
10:53 PM 66.0 °F - 61.0 °F 84% 30.01 in 10.0 mi Calm Calm - N/A   Clear
11:53 PM 63.0 °F - 60.1 °F 90% 29.99 in 9.0 mi Calm Calm - N/A   Clear